NJE615C EHAM-EGSS

Flight info

Callsign NJE615C
Flight time 0h 40m
Altitude 35000
Route IDRID M40 RINIS
Aircraft E55P/M-SBDFGHJ2RWY/LB2

Departure

Time 2026-05-04 08:21
Airport Amsterdam Airport Schiphol (EHAM)

Arrival

Time 2026-05-04 09:01
Airport London Stansted Airport (EGSS)
Time Latitude Longitude Altitude Speed Heading
2026-05-04 08:02 52.31120 4.80480 -5 ft 0 kts 131°
2026-05-04 08:16 52.31097 4.80405 -5 ft 4 kts 234°
2026-05-04 08:16 52.31077 4.80360 -5 ft 5 kts 234°
2026-05-04 08:16 52.31047 4.80313 -5 ft 6 kts 227°
2026-05-04 08:17 52.31057 4.80244 -5 ft 7 kts 322°
2026-05-04 08:17 52.31112 4.80239 -5 ft 8 kts 29°
2026-05-04 08:17 52.31161 4.80306 -5 ft 9 kts 41°
2026-05-04 08:17 52.31216 4.80385 -5 ft 11 kts 42°
2026-05-04 08:19 52.31356 4.80361 -5 ft 5 kts 311°
2026-05-04 08:19 52.31381 4.80301 -5 ft 7 kts 278°
2026-05-04 08:20 52.31345 4.80224 -5 ft 11 kts 221°
2026-05-04 08:20 52.31235 4.80063 -5 ft 46 kts 220°
2026-05-04 08:20 52.30777 4.79411 -4 ft 124 kts 221°
2026-05-04 08:20 52.30024 4.78282 244 ft 159 kts 223°
2026-05-04 08:21 52.29232 4.77107 783 ft 169 kts 220°
2026-05-04 08:21 52.28241 4.75774 1369 ft 198 kts 219°
2026-05-04 08:21 52.27156 4.74232 2088 ft 221 kts 221°
2026-05-04 08:21 52.26028 4.72525 3127 ft 226 kts 233°
2026-05-04 08:22 52.25428 4.70174 4117 ft 234 kts 253°
2026-05-04 08:22 52.24886 4.67540 4776 ft 256 kts 251°
2026-05-04 08:24 52.20779 4.47874 9963 ft 266 kts 251°
2026-05-04 08:24 52.20193 4.45085 11067 ft 266 kts 251°
2026-05-04 08:24 52.19577 4.42170 11584 ft 286 kts 251°
2026-05-04 08:24 52.18900 4.38968 11833 ft 313 kts 251°
2026-05-04 08:25 52.18175 4.35535 12365 ft 327 kts 251°
2026-05-04 08:25 52.17437 4.32044 13349 ft 325 kts 250°
2026-05-04 08:25 52.16704 4.28584 14293 ft 324 kts 250°
2026-05-04 08:25 52.15968 4.25121 15118 ft 327 kts 250°
2026-05-04 08:26 52.15221 4.21616 15858 ft 332 kts 250°
2026-05-04 08:27 52.09765 3.96129 21430 ft 335 kts 249°
2026-05-04 08:28 52.08986 3.92534 22386 ft 330 kts 249°
2026-05-04 08:28 52.08223 3.89003 22968 ft 335 kts 249°
2026-05-04 08:28 52.07398 3.85207 23168 ft 350 kts 249°
2026-05-04 08:28 52.06573 3.81417 23678 ft 354 kts 249°
2026-05-04 08:29 52.05760 3.77670 24330 ft 353 kts 249°
2026-05-04 08:29 52.04945 3.73919 25182 ft 349 kts 249°
2026-05-04 08:29 52.04146 3.70258 25981 ft 345 kts 249°
2026-05-04 08:31 51.99187 3.44892 30864 ft 338 kts 258°
2026-05-04 08:33 51.96538 3.16931 33625 ft 363 kts 258°
2026-05-04 08:33 51.96279 3.12873 34089 ft 364 kts 260°
2026-05-04 08:35 51.94352 2.83484 34952 ft 389 kts 260°
2026-05-04 08:35 51.94058 2.79096 34953 ft 393 kts 260°
2026-05-04 08:35 51.93463 2.70270 34961 ft 398 kts 260°
2026-05-04 08:37 51.91592 2.43160 34957 ft 410 kts 261°
2026-05-04 08:37 51.91333 2.39447 34952 ft 411 kts 261°
2026-05-04 08:38 51.90830 2.32141 34954 ft 414 kts 263°
2026-05-04 08:38 51.90792 2.22749 34961 ft 418 kts 266°
2026-05-04 08:40 51.90609 1.85136 34966 ft 419 kts 266°
2026-05-04 08:41 51.90542 1.75713 34976 ft 419 kts 266°
2026-05-04 08:41 51.90468 1.66311 34981 ft 420 kts 266°
2026-05-04 08:42 51.90386 1.56873 34977 ft 420 kts 267°
2026-05-04 08:42 51.90638 1.52169 34857 ft 425 kts 281°
2026-05-04 08:42 51.91765 1.47862 34433 ft 415 kts 298°
2026-05-04 08:42 51.93606 1.44381 34018 ft 403 kts 313°
2026-05-04 08:43 51.95670 1.41443 33584 ft 389 kts 316°
2026-05-04 08:43 51.97746 1.38723 33153 ft 388 kts 317°
2026-05-04 08:43 51.99901 1.35987 32723 ft 389 kts 317°
2026-05-04 08:43 52.02005 1.33354 32310 ft 387 kts 317°
2026-05-04 08:44 52.04149 1.30678 31885 ft 385 kts 316°
2026-05-04 08:44 52.06251 1.28058 31471 ft 383 kts 316°
2026-05-04 08:46 52.09667 1.03683 28307 ft 333 kts 252°
2026-05-04 08:46 52.09032 1.00061 27763 ft 329 kts 252°
2026-05-04 08:46 52.08393 0.96525 27228 ft 326 kts 252°
2026-05-04 08:46 52.07753 0.93012 26696 ft 323 kts 252°
2026-05-04 08:47 52.07121 0.89571 26164 ft 320 kts 252°
2026-05-04 08:47 52.06486 0.86134 25634 ft 318 kts 252°
2026-05-04 08:47 52.05850 0.82699 25098 ft 315 kts 252°
2026-05-04 08:47 52.05228 0.79339 24569 ft 313 kts 252°
2026-05-04 08:48 52.04597 0.75949 24032 ft 311 kts 252°
2026-05-04 08:48 52.03977 0.72624 23384 ft 309 kts 252°
2026-05-04 08:48 52.03366 0.69339 22711 ft 304 kts 252°
2026-05-04 08:48 52.02753 0.66065 22031 ft 301 kts 252°
2026-05-04 08:49 52.02155 0.62866 21367 ft 297 kts 252°
2026-05-04 08:50 52.00890 0.43094 16739 ft 296 kts 266°
2026-05-04 08:50 52.00744 0.39823 15982 ft 295 kts 265°
2026-05-04 08:51 52.00579 0.36516 15218 ft 294 kts 264°
2026-05-04 08:51 52.00409 0.33227 14461 ft 293 kts 264°
2026-05-04 08:51 52.00238 0.29998 13720 ft 291 kts 264°
2026-05-04 08:51 51.99661 0.26894 12958 ft 289 kts 237°
2026-05-04 08:52 51.98297 0.24621 12244 ft 285 kts 221°
2026-05-04 08:52 51.96910 0.22506 11427 ft 265 kts 224°
2026-05-04 08:52 51.95663 0.20429 10653 ft 250 kts 220°
2026-05-04 08:52 51.94392 0.18682 9907 ft 239 kts 223°
2026-05-04 08:53 51.93183 0.16873 9136 ft 232 kts 223°
2026-05-04 08:54 51.84668 0.03963 4734 ft 254 kts 225°
2026-05-04 08:55 51.83396 0.02031 4298 ft 247 kts 224°
2026-05-04 08:55 51.82155 0.00150 3910 ft 241 kts 224°
2026-05-04 08:55 51.80970 -0.01643 3648 ft 231 kts 223°
2026-05-04 08:55 51.79595 -0.02846 3366 ft 223 kts 187°
2026-05-04 08:57 51.78453 0.08362 2492 ft 181 kts 45°
2026-05-04 09:01 51.88397 0.23326 340 ft 87 kts 42°
2026-05-04 09:01 51.88663 0.23715 333 ft 24 kts 38°
2026-05-04 09:01 51.88773 0.23671 333 ft 17 kts 315°
2026-05-04 09:01 51.88797 0.23538 335 ft 11 kts 233°
2026-05-04 09:02 51.88738 0.23445 337 ft 12 kts 223°
2026-05-04 09:02 51.88668 0.23337 339 ft 15 kts 224°
2026-05-04 09:02 51.88583 0.23212 341 ft 18 kts 223°
2026-05-04 09:02 51.88478 0.23053 339 ft 22 kts 223°
2026-05-04 09:03 51.88360 0.22878 339 ft 21 kts 223°
2026-05-04 09:03 51.88287 0.22768 337 ft 13 kts 232°
2026-05-04 09:03 51.88317 0.22671 336 ft 9 kts 317°
2026-05-04 09:03 51.88338 0.22636 336 ft 0 kts 313°